Weather History for KTVL - March, 2012

Change the Weather History Date:

Tuesday, March 13, 2012

  Actual Average Record
Temperature  
Mean Temperature 39 °F 35 °F  
Max Temperature 42 °F 48 °F 69 °F (2013)
Min Temperature 36 °F 22 °F -3 °F (1990)
Degree Days  
Heating Degree Days 26 30  
Month to date heating degree days 390 402  
Since 1 July heating degree days 5052 5639  
Cooling Degree Days 0 0  
Month to date cooling degree days 0 0  
Year to date cooling degree days 0 0  
Moisture  
Dew Point 28 °F    
Average Humidity 67    
Maximum Humidity 82    
Minimum Humidity 52    
Precipitation  
Precipitation 0.05 in - 2.00 in (1967)
Month to date precipitation 0.26  
Year to date precipitation 5.19  
Sea Level Pressure  
Sea Level Pressure 29.83 in    
Wind  
Wind Speed 17 mph (South)    
Max Wind Speed 33 mph    
Max Gust Speed 52 mph    
Visibility 5 miles    
Events Rain , Snow    
T = Trace of Precipitation, MM = Missing Value Source: NWS Daily Summary

Daily Weather History Graph

Daily Weather History Graph

Search for Another Location

Airport or City:

Trip Planner

Search our weather history database for the weather conditions in past years. The results will help you decide how hot, cold, wet, or windy it might be!

Date:

Astronomy

Mar. 13, 2012 Rise Set
Actual Time 7:13 AM PDT 7:05 PM PDT
Civil Twilight 6:46 AM PDT 7:32 PM PDT
Nautical Twilight 6:16 AM PDT 8:03 PM PDT
Astronomical Twilight 5:44 AM PDT 8:34 PM PDT
Moon 12:39 AM PDT (3/13) 10:34 AM PDT (3/13)
Length of Visible Light 12h 45m
Length of Day
11h 52m
Waning Gibbous, 64% of the Moon is Illuminated
Mar 13
Waning Gibbous
Mar 14
Last Quarter
Mar 22
New
Mar 30
First Quarter
Apr 6
Full

Hourly Weather History & Observations

Time (PDT) Temp. Windchill Dew Point Humidity Pressure Visibility Wind Dir Wind Speed Gust Speed Precip Events Conditions
12:39 AM 37.4 °F 28.9 °F 21.2 °F 52% 29.83 in 10.0 mi SSE 13.8 mph 36.8 mph N/A   Squalls
12:53 AM 37.9 °F 29.2 °F 23.0 °F 55% 29.75 in 10.0 mi South 15.0 mph 40.3 mph N/A   Overcast
1:23 AM 37.4 °F 27.5 °F 24.8 °F 60% 29.82 in 10.0 mi South 18.4 mph 32.2 mph N/A   Overcast
1:53 AM 37.9 °F 28.5 °F 25.0 °F 60% 29.73 in 10.0 mi South 17.3 mph 32.2 mph N/A   Overcast
2:06 AM 37.4 °F 28.9 °F 24.8 °F 60% 29.80 in 10.0 mi SSW 13.8 mph 41.4 mph N/A   Overcast
2:53 AM 37.9 °F 30.5 °F 25.0 °F 60% 29.74 in 10.0 mi South 11.5 mph 24.2 mph N/A   Overcast
3:46 AM 37.4 °F 26.4 °F 21.2 °F 52% 29.77 in 10.0 mi South 23.0 mph 44.9 mph N/A   Mostly Cloudy
3:53 AM 37.0 °F 27.0 °F 23.0 °F 57% 29.69 in 10.0 mi South 18.4 mph 42.6 mph N/A   Mostly Cloudy
4:53 AM 37.0 °F 26.4 °F 21.9 °F 54% 29.67 in 10.0 mi SSW 20.7 mph 51.8 mph N/A   Partly Cloudy
5:53 AM 37.0 °F 26.2 °F 21.9 °F 54% 29.70 in 10.0 mi SSW 21.9 mph 41.4 mph N/A   Mostly Cloudy
6:53 AM 37.9 °F 26.3 °F 23.0 °F 55% 29.71 in 9.0 mi South 26.5 mph 43.7 mph 0.00 in   Overcast
7:45 AM 37.4 °F 26.9 °F 24.8 °F 60% 29.78 in 3.0 mi SSW 20.7 mph 34.5 mph 0.00 in Snow Light Snow
7:53 AM 37.0 °F 25.1 °F 25.0 °F 62% 29.73 in 2.5 mi South 26.5 mph 43.7 mph 0.00 in Snow Light Snow
8:03 AM 37.4 °F 25.9 °F 24.8 °F 60% 29.78 in 1.8 mi South 25.3 mph 41.4 mph 0.00 in Snow Light Snow
8:17 AM 37.4 °F 26.4 °F 24.8 °F 60% 29.77 in 3.0 mi South 23.0 mph 36.8 mph 0.00 in Snow Light Snow
8:27 AM 37.4 °F 26.9 °F 24.8 °F 60% 29.78 in 9.0 mi South 20.7 mph 36.8 mph 0.00 in   Mostly Cloudy
8:36 AM 39.2 °F 28.7 °F 24.8 °F 56% 29.79 in 10.0 mi South 23.0 mph 49.5 mph 0.00 in   Mostly Cloudy
8:53 AM 39.0 °F 31.4 °F 25.0 °F 57% 29.76 in 8.0 mi SSW 12.7 mph 36.8 mph 0.00 in   Mostly Cloudy
9:07 AM 39.2 °F 29.8 °F 26.6 °F 61% 29.83 in 2.5 mi SSW 18.4 mph 43.7 mph N/A   Haze
9:31 AM 37.4 °F 26.6 °F 26.6 °F 65% 29.82 in 1.5 mi SSW 21.9 mph 38.0 mph 0.00 in Snow Light Snow
9:39 AM 37.4 °F 26.6 °F 28.4 °F 70% 29.82 in 1.8 mi South 21.9 mph 38.0 mph 0.00 in Snow Light Snow
9:53 AM 39.0 °F 29.9 °F 28.0 °F 65% 29.76 in 1.8 mi SSW 17.3 mph 34.5 mph 0.00 in   Unknown
10:01 AM 39.2 °F 28.5 °F 28.4 °F 65% 29.81 in 2.5 mi South 24.2 mph 42.6 mph 0.00 in   Unknown
10:06 AM 39.2 °F 28.7 °F 28.4 °F 65% 29.82 in 3.0 mi SSW 23.0 mph 38.0 mph 0.00 in Rain Light Rain
10:26 AM 39.2 °F 29.3 °F 28.4 °F 65% 29.83 in 1.8 mi SSW 20.7 mph 34.5 mph 0.00 in   Haze
10:53 AM 39.0 °F 28.3 °F 28.9 °F 67% 29.79 in 1.2 mi South 24.2 mph 34.5 mph 0.00 in   Unknown
11:15 AM 39.2 °F 28.5 °F 28.4 °F 65% 29.84 in 2.0 mi South 24.2 mph 39.1 mph 0.00 in   Haze
11:51 AM 41.0 °F 30.7 °F 30.2 °F 65% 29.82 in 3.0 mi South 25.3 mph 34.5 mph 0.00 in   Haze
11:53 AM 41.0 °F 30.7 °F 28.9 °F 62% 29.76 in 3.0 mi SSW 25.3 mph 35.7 mph 0.00 in   Haze
12:18 PM 41.0 °F 31.6 °F 28.4 °F 61% 29.83 in 2.5 mi SSW 20.7 mph 44.9 mph N/A   Haze
12:27 PM 42.8 °F 33.1 °F 28.4 °F 57% 29.83 in 4.0 mi South 25.3 mph 40.3 mph 0.00 in Rain Light Rain
12:51 PM 41.0 °F 31.1 °F 28.4 °F 61% 29.84 in 4.0 mi South 23.0 mph 36.8 mph 0.00 in Rain Light Rain
12:53 PM 41.0 °F 32.5 °F 28.9 °F 62% 29.79 in 4.0 mi South 17.3 mph 36.8 mph 0.00 in Rain Light Rain
1:00 PM 41.0 °F 32.2 °F 30.2 °F 65% 29.85 in 5.0 mi SSW 18.4 mph 36.8 mph 0.00 in   Haze
1:14 PM 41.0 °F 32.2 °F 30.2 °F 65% 29.86 in 2.0 mi SSW 18.4 mph 39.1 mph 0.00 in   Haze
1:20 PM 41.0 °F 32.5 °F 30.2 °F 65% 29.86 in 3.0 mi South 17.3 mph 31.1 mph 0.00 in   Haze
1:34 PM 41.0 °F 31.4 °F 30.2 °F 65% 29.86 in 3.0 mi South 21.9 mph 36.8 mph 0.00 in   Haze
1:53 PM 39.9 °F 31.8 °F 30.0 °F 68% 29.82 in 2.5 mi South 15.0 mph 35.7 mph 0.00 in   Haze
2:04 PM 39.2 °F 30.8 °F 30.2 °F 70% 29.87 in 4.0 mi South 15.0 mph 27.6 mph N/A   Haze
2:46 PM 39.2 °F 32.5 °F 33.8 °F 81% 29.89 in 5.0 mi SSE 10.4 mph - 0.00 in Rain Light Rain
2:53 PM 39.9 °F 33.9 °F 32.0 °F 73% 29.83 in 4.0 mi SE 9.2 mph - 0.00 in Rain Light Rain
3:53 PM 39.0 °F 34.0 °F 30.9 °F 73% 29.85 in 4.0 mi Variable 6.9 mph 19.6 mph 0.00 in   Haze
4:03 PM 39.2 °F 30.8 °F 30.2 °F 70% 29.88 in 5.0 mi SSE 15.0 mph 20.7 mph 0.00 in Rain Light Rain
4:12 PM 39.2 °F 31.2 °F 30.2 °F 70% 29.89 in 4.0 mi South 13.8 mph 23.0 mph 0.00 in   Haze
4:53 PM 39.0 °F 30.3 °F 30.0 °F 70% 29.84 in 4.0 mi SSE 16.1 mph 21.9 mph 0.00 in   Haze
5:53 PM 39.0 °F 31.8 °F 30.0 °F 70% 29.87 in 4.0 mi South 11.5 mph - 0.00 in   Haze
6:17 PM 37.4 °F 30.3 °F 30.2 °F 75% 29.92 in 4.0 mi South 10.4 mph - 0.00 in Snow Light Snow
6:32 PM 37.4 °F 30.3 °F 30.2 °F 75% 29.92 in 4.0 mi South 10.4 mph 19.6 mph 0.00 in Snow Light Snow
6:53 PM 37.0 °F 30.4 °F 30.9 °F 79% 29.89 in 5.0 mi South 9.2 mph - 0.00 in Snow Light Snow
7:24 PM 37.4 °F 30.3 °F 30.2 °F 75% 29.92 in 3.0 mi South 10.4 mph - 0.00 in Snow Light Snow
7:53 PM 36.0 °F 29.6 °F 30.9 °F 82% 29.89 in 3.0 mi SSW 8.1 mph - 0.01 in Snow Light Snow
8:19 PM 37.4 °F 29.8 °F 30.2 °F 75% 29.93 in 5.0 mi South 11.5 mph - 0.00 in Snow Light Snow
8:53 PM 37.0 °F 31.6 °F 30.9 °F 79% 29.88 in 8.0 mi South 6.9 mph - 0.01 in Snow Light Snow
9:51 PM 37.4 °F 29.3 °F 30.2 °F 75% 29.93 in 3.0 mi South 12.7 mph 19.6 mph 0.00 in Snow Light Snow
9:53 PM 37.0 °F 28.1 °F 30.9 °F 79% 29.89 in 3.0 mi SSW 15.0 mph 23.0 mph 0.00 in Snow Light Snow
10:03 PM 37.4 °F 29.3 °F 30.2 °F 75% 29.94 in 2.5 mi South 12.7 mph - 0.00 in Snow Light Snow
10:16 PM 37.4 °F 29.8 °F 30.2 °F 75% 29.94 in 3.0 mi South 11.5 mph 18.4 mph 0.01 in Snow Light Snow
10:53 PM 37.0 °F 28.5 °F 30.9 °F 79% 29.89 in 4.0 mi South 13.8 mph 19.6 mph 0.01 in Snow Light Snow
11:06 PM 37.4 °F 30.3 °F 30.2 °F 75% 29.93 in 6.0 mi SSW 10.4 mph 23.0 mph 0.00 in Rain Light Rain
11:41 PM 37.4 °F 29.3 °F 30.2 °F 75% 29.93 in 4.0 mi South 12.7 mph 18.4 mph 0.01 in Snow Light Snow
11:53 PM 37.9 °F 30.9 °F 30.9 °F 76% 29.88 in 5.0 mi South 10.4 mph - 0.01 in Snow Light Snow